www.pogodaiklimat.ru

Погода и климат >> Архив погоды >> Мартиника >> Аэропорт Мартиники


ПОГОДА в Аэропорту Мартиники

  • Прогноз погоды в Аэропорту Мартиники
  • Монитор погоды в Аэропорту Мартиники

АРХИВ ПОГОДЫ в Аэропорту Мартиники

Время (UTC), дата Ветер
(напр.,м/с)
 
Видим.   Явления Облачность Т
(С)
Тd
(С)
f
(%)
Тe
(С)
Тes
(С)
Комфортность P
(гПа)
Po
(гПа)
Тmin
(С)
Tmax
(С)
R
(мм)
R24
(мм)
S
(см)
15 18.06 В 8 22 км 10/10 600 м
[]
+30.6 +24.3 69 +43 +43 опасность
перегрева
1017.2 1016.4
18 18.06 В 9 17 км н/о +30.6 +25.0 72 +44 +44 опасность
перегрева
1016.3 1015.5 +26.3 +31.1
21 18.06 В 9 19 км 9/9 600 м
[]
+29.3 +24.6 76 +42 +42 опасность
перегрева
1015.5 1014.7
00 19.06 В 7 24 км 10/10 600 м
[]
+27.9 +24.3 81 +39 +39 очень
душно
1016.8 1016.0 +26.3 +31.1 0.0
03 19.06 В 6 25 км 9/9 600 м
[]
+27.7 +24.1 81 +39 +39 очень
душно
1017.9 1017.1
06 19.06 В 7 24 км 9/9 600 м
[]
+27.2 +23.7 81 +37 +37 очень
душно
1016.5 1015.7 +26.3 +31.1 0.2
09 19.06 В 6 21 км н/о +26.7 +23.4 82 +36 +36 очень
душно
1016.0 1015.2
12 19.06 В 8 45 км 9/9 600 м
[]
+28.5 +24.1 77 +40 +40 очень
душно
1017.1 1016.3 +26.6 +31.1 0.4
15 19.06 В 10 21 км н/о +30.6 +24.0 68 +42 +42 опасность
перегрева
1017.7 1016.9
18 19.06 В 9 13 км 10/10 600 м
[]
+29.9 +23.8 70 +41 +41 опасность
перегрева
1015.9 1015.1 +26.6 +31.0 0.0
21 19.06 В 8 21 км 10/10 600 м
[]
+29.1 +24.4 76 +41 +41 опасность
перегрева
1015.4 1014.6
00 20.06 В 7 17 км 10/10 300 м
[]
+27.7 +24.5 83 +39 +39 очень
душно
1016.7 1015.9 +26.6 +31.0 0.2
03 20.06 В 7 19 км 10/10 600 м
[]
+28.0 +24.6 82 +40 +40 очень
душно
1017.6 1016.8
06 20.06 В 6 19 км 10/10 600 м
[]
+27.5 +24.4 83 +39 +39 очень
душно
1017.0 1016.2 +26.6 +31.0 0.0
09 20.06 В 5 13 км 9/9 300 м
[]
+26.7 +25.1 91 +38 +38 очень
душно
1017.2 1016.4
12 20.06 ЮВ 8 45 км н/о +28.9 +24.0 75 +40 +40 очень
душно
1018.8 1018.0 +26.5 +31.0 1
15 20.06 В 9 23 км 10/10 600 м
[]
+30.4 +24.3 70 +42 +42 опасность
перегрева
1019.6 1018.8
18 20.06 В 8 21 км 8/8 600 м
[]
+30.0 +23.9 70 +41 +42 опасность
перегрева
1018.5 1017.7 +26.5 +31.0
21 20.06 В 8 23 км 9/9 600 м
[]
+29.0 +23.9 74 +40 +40 очень
душно
1017.7 1016.9
00 21.06 В 5 22 км 9/9 600 м
[]
+27.6 +23.8 80 +38 +38 очень
душно
1018.7 1017.9 +26.5 +31.0
03 21.06 В 5 21 км 9/9 600 м
[]
+27.4 +24.1 82 +38 +38 очень
душно
1019.4 1018.6
06 21.06 В 4 22 км н/о +27.0 +23.7 82 +37 +37 очень
душно
1017.9 1017.1 +26.5 +31.0
09 21.06 В 5 22 км 10/10 600 м
[]
+26.9 +23.6 82 +37 +37 очень
душно
1018.1 1017.3
12 21.06 В 5 25 км 9/9 600 м
[]
+28.9 +23.8 74 +40 +40 очень
душно
1019.2 1018.4 +26.6 +31.0
15 21.06 В 8 25 км 8/8 600 м
[]
+30.5 +23.2 65 +41 +42 опасность
перегрева
1019.6 1018.8
18 21.06 В 9 35 км 10/10 600 м
[]
+30.5 +23.7 67 +42 +42 опасность
перегрева
1018.2 1017.4 +26.6 +31.7 0.0
21 21.06 В 7 35 км 10/10 600 м
[]
+29.0 +23.2 71 +39 +39 очень
душно
1017.6 1016.8
00 22.06 В 4 35 км н/о +27.5 +23.3 78 +37 +37 очень
душно
1018.6 1017.8 +26.6 +31.7
03 22.06 В 5 35 км 9/9 600 м
[]
+27.2 +23.4 80 +37 +37 очень
душно
1019.4 1018.6
06 22.06 В 6 40 км н/о +27.1 +23.1 79 +36 +36 очень
душно
1018.4 1017.6 +26.6 +31.7
09 22.06 В 5 9000 м 10/10 600 м
[]
+25.9 +23.4 86 +35 +35 очень
душно
1018.1 1017.3
12 22.06 В 8 45 км н/о +28.9 +22.6 69 +38 +38 очень
душно
1018.8 1018.0 +25.6 +31.7 0.6
15 22.06 В 7 55 км 9/9 600 м
[]
+30.4 +23.1 65 +41 +41 опасность
перегрева
1018.6 1017.8
18 22.06 В 6 55 км 8/8 600 м
[]
+30.5 +22.9 64 +40 +42 очень
душно
1017.0 1016.2 +25.6 +31.3
21 22.06 В 7 40 км 10/10 600 м
[]
+28.6 +23.7 75 +39 +39 очень
душно
1016.8 1016.0
00 23.06 В 6 50 км н/о +27.6 +23.2 77 +37 +37 очень
душно
1017.4 1016.6 +25.6 +31.3
03 23.06 В 7 50 км 9/9 600 м
[]
+27.7 +23.7 79 +38 +38 очень
душно
1018.6 1017.8
06 23.06 В 4 45 км 9/9 600 м
[]
+27.0 +23.5 81 +37 +37 очень
душно
1017.1 1016.3 +25.6 +31.3
09 23.06 В 2 40 км н/о +26.6 +23.7 84 +36 +36 очень
душно
1016.8 1016.0
12 23.06 В 5 45 км н/о +29.3 +24.6 76 +42 +42 опасность
перегрева
1017.3 1016.5 +26.3 +31.3
15 23.06 В 7 45 км 10/10 600 м
[]
+30.1 +25.0 74 +43 +43 опасность
перегрева
1017.7 1016.9
18 23.06 Ю 2 35 км 9/9 600 м
[]
+25.8 +24.0 90 +36 +37 очень
душно
1018.3 1017.5 +25.7 +30.8 2
21 23.06 В 3 60 км н/о +26.4 +24.2 88 +37 +37 очень
душно
1014.9 1014.1
00 24.06 СВ 2 50 км н/о +25.6 +24.0 91 +35 +35 очень
душно
1015.9 1015.1 +25.4 +30.8 0.2
03 24.06 ЮВ 1 35 км н/о +24.7 +23.8 95 +34 +34 очень
душно
1016.8 1016.0
06 24.06 ЮВ 2 50 км н/о +24.0 +23.5 97 +32 +32 очень
душно
1015.4 1014.6 +23.9 +30.8 0.0
09 24.06 В 2 55 км н/о +24.1 +23.4 96 +32 +32 очень
душно
1015.0 1014.2
12 24.06 В 3 45 км н/о +28.0 +24.6 82 +40 +40 очень
душно
1016.3 1015.5 +23.5 +30.8
15 24.06 В 8 55 км н/о +30.8 +23.7 66 +42 +42 опасность
перегрева
1016.2 1015.4
18 24.06 В 8 45 км н/о +31.0 +24.4 68 +43 +43 опасность
перегрева
1014.9 1014.1 +23.5 +31.7
21 24.06 ЮВ 8 30 км н/о +29.3 +24.4 75 +41 +41 опасность
перегрева
1014.3 1013.5
00 25.06 В 4 30 км н/о +27.2 +23.9 82 +37 +37 очень
душно
1015.5 1014.7 +23.5 +31.7 0.0
03 25.06 В 4 30 км н/о +26.8 +23.7 83 +37 +37 очень
душно
1016.7 1015.9
06 25.06 В 6 28 км н/о +26.8 +23.7 83 +37 +37 очень
душно
1015.2 1014.4 +23.5 +31.7
09 25.06 В 4 45 км 9/9 600 м
[]
+26.6 +23.3 82 +36 +36 очень
душно
1015.0 1014.2
12 25.06 В 7 50 км 8/8 600 м
[]
+29.0 +23.7 73 +40 +40 очень
душно
1015.8 1015.0 +26.4 +31.7

 

Местоположение метеостанции Аэропорт Мартиники (Мартиника): широта 14.60 долгота -61.00 высота над уровнем моря 7 м.

В архиве по умолчанию представлена погода в Аэропорту Мартиники за последнюю неделю. Архивные данные за месяц целиком и за предыдущие месяцы, начиная с января 2011 года, Вы можете получить, выбрав интересующий диапазон дат из раскрывающегося списка и нажав кнопку "Ввод!".


*Определитесь, кто Вы:
робот инопланетянин человек

Внимание! Время в таблицах - всемирное. Для получения местного времени необходимо прибавить поправку, которая равна -4 ч.

Смотрите также архив погоды в соседних городах и на ближайших метеорологических станциях:

Погода на Каравелле (Мартиника) (23 км)
Погода в Виги (Сент-Люсия) (66 км)
Погода в Аэропорту Хеванорра (Сент-Люсия) (97 км)
Погода в Дуглас-Шарль аэропорту (Доминика) (108 км)
Погода в Канфилд аэропорту (Доминика) (112 км)
Погода в Арнос Вейл (Сент-Винсент и Гренадины) (165 км)
Погода в Пуэнт-а-Питре (Гваделупа) (197 км)
Погода в Грантли Адамсе (Барбадос) (236 км)
Погода в Сент-Джонсе (Антигуа и Барбуда) (292 км)
Погода в Аэропорту Морис Бишоп (Гренада) (301 км)

Пояснения к столбцам:

Ветер - указаны скорость ветра в м/с - средняя за 10 мин, порывы в срок и между сроками (в фигурных скобках) и направление, откуда дует ветер: С - северный, СВ - северо-восточный, В - восточный, ЮВ - юго-восточный, Ю - южный, ЮЗ - юго-западный, З - западный, СЗ - северо-западный.
Видимость - горизонтальная дальность видимости в метрах или километрах. При видимости от 1 до 10 км при отсутствии осадков обычно наблюдается дымка, при ухудшении видимости до 1 км и менее - туман. В сухую погоду видимость может ухудшаться дымом, пылью или мглою.
Явления - указаны атмосферные явления, наблюдавшиеся в срок или в последний час перед сроком; фигурными скобками обозначены явления, наблюдавшиеся между сроками (за 1-3 часа до срока); квадратными скобками обозначены град или гололедные отложения с указанием их диаметра в мм.
Облачность - указаны через наклонную черту общая и нижняя облачность в баллах и высота нижней границы облаков в метрах; квадратными скобками обозначены формы облаков: Ci - перистые, Cs - перисто-слоистые, Cc - перисто-кучевые, Ac - высококучевые, As - высокослоистые, Sc - слоисто-кучевые, Ns - слоисто-дождевые, Cu - кучевые, Cb - кучево-дождевые. Подробнее классификацию облаков см. в Атласе облаков (PDF).
T - Температура воздуха - температура, измеренная на высоте 2 м над землей.
Td - Температура точки росы - температура, при понижении до которой содержащийся в воздухе водяной пар достигнет насыщения.
f - Относительная влажность воздуха - влажноcть воздуха, измеренная на высоте 2 м над землей.
Te - Эффективная температура - температура, которую ощущает одетый по сезону человек в тени. Характеристика душности погоды. При расчете учитывается влияние влажности воздуха и скорости ветра на теплоощущения человека.
Tes - Эффективная температура на солнце - температура, которую ощущает человек, с поправкой на солнечный нагрев. Характеристика знойности погоды. Зависит от высоты солнца над горизонтом, облачности и скорости ветра. Ночью, в пасмурную погоду, а также при ветре 12 м/с и более поправка равна нулю.
P - Атмосферное давление - приведенное к уровню моря атмосферное давление.
Po - Атмосферное давление - измеренное на уровне метеостанции атмосферное давление.
Tmin - Минимальная температура - минимум температуры воздуха на высоте 2 м над землей.
Tmax - Максимальная температура - максимум температуры воздуха на высоте 2 м над землей.
R - Количество осадков - Количество выпавших осадков за период времени, мм. При наведении курсора мыши на число - период времени, за который выпало указанное количество осадков.
R24 - Количество осадков - Количество выпавших осадков за 24 часа, мм.
S - Снежный покров - Высота снежного покрова, см. При наведении курсора мыши на число - состояние снежного покрова и степень покрытия местности в баллах.